This is the latest recevied weather packets stored in our database for station/object KE8WAY. If no packets are shown the sender has not sent any weather packets the latest 10 day(s).
| Time | Temp. | Humidity | Pressure | Rain* | Wind** | Luminosity | Snow |
|---|---|---|---|---|---|---|---|
| 1778081171 | 12.22° C | 44% | 1011.5 hPa | 0 mm | - | 655 W/m² | - |
| 1778080869 | 11.67° C | 41% | 1011.7 hPa | 0 mm | - | 443 W/m² | - |
| 1778080567 | 11.67° C | 46% | 1011.5 hPa | 0 mm | - | 416 W/m² | - |
| 1778080264 | 12.22° C | 46% | 1011.5 hPa | 0 mm | - | 396 W/m² | - |
| 1778079961 | 12.22° C | 46% | 1011.3 hPa | 0 mm | - | 745 W/m² | - |
| 1778079657 | 12.22° C | 50% | 1011.1 hPa | 0 mm | - | 734 W/m² | - |
| 1778079354 | 11.67° C | 47% | 1011.2 hPa | 0 mm | - | 771 W/m² | - |
| 1778079052 | 11.67° C | 48% | 1011.3 hPa | 0 mm | - | 713 W/m² | - |
| 1778078748 | 11.67° C | 46% | 1011.2 hPa | 0 mm | - | 666 W/m² | - |
| 1778078445 | 11.67° C | 51% | 1011.1 hPa | 0 mm | - | 596 W/m² | - |
| 1778078143 | 11.67° C | 54% | 1011 hPa | 0 mm | - | 535 W/m² | - |
| 1778077841 | 11.67° C | 53% | 1011 hPa | 0 mm | - | 552 W/m² | - |
| 1778077539 | 11.67° C | 50% | 1010.8 hPa | 0 mm | - | 636 W/m² | - |
| 1778077237 | 11.11° C | 54% | 1011.1 hPa | 0 mm | - | 675 W/m² | - |
| 1778076934 | 11.11° C | 54% | 1010.8 hPa | 0 mm | - | 655 W/m² | - |
| 1778076632 | 11.11° C | 52% | 1010.9 hPa | 0 mm | - | 644 W/m² | - |
| 1778076329 | 11.11° C | 54% | 1011.1 hPa | 0 mm | - | 568 W/m² | - |
| 1778076027 | 11.11° C | 55% | 1010.7 hPa | 0 mm | - | 458 W/m² | - |
| 1778075723 | 11.11° C | 64% | 1010.7 hPa | 0 mm | - | 564 W/m² | - |
| 1778075419 | 10.56° C | 62% | 1010.8 hPa | 0 mm | - | 569 W/m² | - |
| 1778075116 | 10.56° C | 63% | 1010.7 hPa | 0 mm | - | 447 W/m² | - |
| 1778074812 | 10.56° C | 65% | 1010.7 hPa | 0 mm | - | 525 W/m² | - |
| 1778074509 | 10.56° C | 61% | 1010.9 hPa | 0 mm | - | 327 W/m² | - |
| 1778074201 | 10.56° C | 61% | 1010.5 hPa | 0 mm | - | 439 W/m² | - |
| 1778073898 | 10° C | 63% | 1010.7 hPa | 0 mm | - | 340 W/m² | - |
* Rain latest hour (hover to see other rain measurements)
** Current wind speed in m/s (hover to see current wind gust speed)